User: anonymous   Login
Location: Unspecified
(0.0000°N, 0.0000°E)
Time: 18:47:25
(UTC+02:00)
Language:

Gurwin Techsat 1B - Orbit

View from above orbital plane
View from above orbital plane
View from above satellite
View from above satellite

Ground track
Ground track

The orbit data is extracted from the following two-line orbital elements,

1 25397U 98043D   15180.20421457 -.00000007  00000-0  15646-4 0  9994
2 25397 098.5204 130.2696 0000559 003.8312 108.9320 14.23550923881508
Epoch (UTC): 29 June 2015 04:54:04
Eccentricity: 0.0000559
inclination: 98.5204°
perigee height: 813 km
apogee height: 814 km
right ascension of ascending node: 130.2696°
argument of perigee: 3.8312°
revolutions per day: 14.23550923
mean anomaly at epoch: 108.9320°
orbit number at epoch: 88150

The dashed part of the orbit path shows where the satellite is in the earth's shadow,  

DLR